Regional Weather Roundup
Issued by NWS

Home | Current Version | Previous Version | Graphics & Text | Print | Product List | Glossary On
Versions: 1 2 3 4 5 6 7 8 9 10 11 12 13 14 15 16 17 18 19 20 21 22 23 24 25 26 27 28 29 30 31 32 33 34 35 36 37 38 39 40 41 42 43 44 45 46 47 48 49 50
000
ASUS45 KCYS 090810
RWRWY

WYOMING REGIONAL WEATHER ROUNDUP
NATIONAL WEATHER SERVICE CHEYENNE WY
100 AM MST TUE FEB 09 2016

NOTE:  "FAIR" INDICATES FEW OR NO CLOUDS BELOW 12,000 FEET
WITH NO SIGNIFICANT WEATHER AND/OR OBSTRUCTIONS TO VISIBILITY.

WYZ001-090900-
YELLOWSTONE NATIONAL PARK

CITY           SKY/WX    TMP DP  RH WIND       PRES   REMARKS
LK YELLOWSTONE   N/A     11   7  84 CALM      30.57F
W YELLOWSTONE  NOT AVBL

$$
WYZ002>013-054>058-071-098>099-090900-
NORTHERN WYOMING

CITY           SKY/WX    TMP DP  RH WIND       PRES   REMARKS
JACKSON        FAIR       9   9 100 NE6       30.58S WCI  -1
CODY           FAIR      27  18  69 CALM      30.35S
GREYBULL       FAIR      22  17  81 CALM      30.38S
WORLAND        FAIR      19  17  92 CALM      30.37S
SHERIDAN       FAIR      38  28  67 W10       30.29F WCI  31
BUFFALO        FAIR      41  28  60 NW8       30.29R
GILLETTE       FAIR      33  26  75 W13       30.26S WCI  24
HULETT         FAIR      34  25  69 SW6       30.25S WCI  29
NEWCASTLE      FAIR      28  21  74 NW6       30.23F WCI  22

$$
WYZ014>020-022>026-101>103-090900-
CENTRAL WYOMING

CITY           SKY/WX    TMP DP  RH WIND       PRES   REMARKS
BIG PINEY      FAIR      25  20  81 NE15      30.49S WCI  13
PINEDALE       FAIR      28  21  74 NW17      30.46F WCI  16
DUBOIS         FAIR      36  23  60 NW26G39   30.42F WCI  23
LANDER         FAIR      25  16  68 CALM      30.37R
RIVERTON       FAIR      20  15  81 CALM      30.38S
CASPER         FAIR      31  20  63 SW22      30.34F WCI  18
DOUGLAS        FAIR      33  22  63 NW16        N/A  WCI  23

$$
WYZ021-027>030-104>119-090900-
SOUTHERN WYOMING

CITY           SKY/WX    TMP DP  RH WIND       PRES   REMARKS
EVANSTON       FAIR      25  16  68 S7        30.56F WCI  17
FORT BRIDGER   SUNNY     32  25  74 W21       30.55F WCI  20
ROCK SPRINGS   FAIR      28  21  75 SW20      30.46F WCI  15
DIXON          FAIR      16  12  84 CALM      30.53F
RAWLINS        FAIR      28  18  66 W7G16     30.41F WCI  21
SARATOGA       FAIR      12  10  92 SE5       30.44F WCI   4
LARAMIE        FAIR      19  14  81 E7        30.34F WCI  10
CHEYENNE       FAIR      35  19  52 NW13      30.28F WCI  26
TORRINGTON     MOCLDY    32  23  69 NW10      30.25F WCI  24
PINE BLUFFS    FAIR      36  25  64 NW21G29   30.26F WCI  24

$$



USA.gov is the U.S. government's official web portal to all federal, state and local government web resources and services.